This is the latest recevied weather packets stored in our database for station/object K0SNA. If no packets are shown the sender has not sent any weather packets the latest 10 day(s).
| Time | Temp. | Humidity | Pressure | Rain* | Wind** | Luminosity | Snow |
|---|---|---|---|---|---|---|---|
| 1777686660 | 9.44° C | 40% | 1018.9 hPa | 0 mm | - | 0 W/m² | - |
| 1777686357 | 9.44° C | 39% | 1018.7 hPa | 0 mm | - | 0 W/m² | - |
| 1777686054 | 9.44° C | 38% | 1018.6 hPa | 0 mm | - | 0 W/m² | - |
| 1777685750 | 10° C | 37% | 1018.7 hPa | 0 mm | - | 0 W/m² | - |
| 1777685446 | 10° C | 37% | 1018.7 hPa | 0 mm | - | 1 W/m² | - |
| 1777685144 | 10° C | 36% | 1018.8 hPa | 0 mm | - | 1 W/m² | - |
| 1777684841 | 10° C | 36% | 1018.7 hPa | 0 mm | - | 2 W/m² | - |
| 1777684538 | 10.56° C | 36% | 1018.6 hPa | 0 mm | - | 3 W/m² | - |
| 1777684234 | 10.56° C | 35% | 1018.6 hPa | 0 mm | - | 5 W/m² | - |
| 1777683932 | 10.56° C | 34% | 1018.5 hPa | 0 mm | - | 7 W/m² | - |
| 1777683628 | 10.56° C | 34% | 1018.7 hPa | 0 mm | - | 9 W/m² | - |
| 1777683326 | 11.11° C | 33% | 1018.6 hPa | 0 mm | - | 12 W/m² | - |
| 1777683023 | 11.11° C | 33% | 1018.7 hPa | 0 mm | - | 17 W/m² | - |
| 1777682719 | 11.11° C | 33% | 1018.3 hPa | 0 mm | - | 18 W/m² | - |
| 1777682416 | 11.11° C | 34% | 1018.6 hPa | 0 mm | - | 23 W/m² | - |
| 1777682114 | 11.11° C | 33% | 1018.5 hPa | 0 mm | - | 23 W/m² | - |
| 1777681810 | 11.11° C | 34% | 1018.5 hPa | 0 mm | - | 23 W/m² | - |
| 1777681507 | 11.11° C | 34% | 1018.6 hPa | 0 mm | - | 27 W/m² | - |
| 1777681204 | 11.11° C | 33% | 1018.6 hPa | 0 mm | - | 31 W/m² | - |
| 1777680902 | 11.11° C | 34% | 1018.5 hPa | 0 mm | - | 35 W/m² | - |
| 1777680599 | 11.11° C | 34% | 1018.4 hPa | 0 mm | - | 34 W/m² | - |
| 1777680298 | 10.56° C | 34% | 1018.4 hPa | 0 mm | - | 35 W/m² | - |
| 1777679994 | 10.56° C | 35% | 1018.6 hPa | 0 mm | - | 46 W/m² | - |
| 1777679689 | 10.56° C | 36% | 1018.5 hPa | 0 mm | - | 39 W/m² | - |
| 1777679384 | 10.56° C | 35% | 1018.6 hPa | 0 mm | - | 48 W/m² | - |
* Rain latest hour (hover to see other rain measurements)
** Current wind speed in m/s (hover to see current wind gust speed)